Weather in Kizilyurt

Russia / Republic of Dagestan     43°12′16″N   46°52′00″E
temp.,
°C
wind,
m/s
gust,
m/s
humid.,
%
clouds,
%
prec.,
mm/h
press.,
hPa
HPBL,
m
10 may, mon
mon1000:00+8w131886100 0.1 10201147
03:00+8w111682100 0.6 10201189
06:00+8w111678100 1.7 10201240
09:00+11w9136344 1.7 10221619
12:00+15wnw9114298 0.0 10202567
15:00+16wnw674276 0.0 10202143
18:00+13sw465859 0.0 1020241
21:00+10sw336199 0.0 102152
11 may, tue
tue1100:00+8w236381 0.0 102142
03:00+7w11748 0.0 102010
06:00+9e12725 0.0 1020107
09:00+15ese8115464 0.0 10181807
12:00+17e1010436 0.0 10161756
15:00+17ese1011481 0.0 10161384
18:00+13e710630 0.0 1017681
21:00+9ese478018 0.0 1017123
12 may, wed
wed1200:00+8e23850 0.0 101736
03:00+8wsw11880 0.0 101710
06:00+10w11790 0.0 101774
09:00+15ene23600 0.0 1017819
12:00+20ene44480 0.0 10161325
15:00+20e54480 0.0 10161220
18:00+17e35640 0.0 1017158
21:00+12ese23780 0.0 101737
13 may, thu
thu1300:00+12sse11780 0.0 101610
03:00+11e22830 0.0 101615
06:00+13e12770 0.0 101681
09:00+18ene22610 0.0 1016547
12:00+23ene34510 0.0 1015939
15:00+23e65520 0.0 1014853
18:00+18e46690 0.0 1015266
21:00+14e228586 0.0 101526
14 may, fri
fri1400:00+13e118895 0.0 101511
03:00+13ese11880 0.0 101510
06:00+15ene00805 0.0 101552
09:00+21ene22640 0.0 1015475
12:00+27e67471 0.0 1014958
15:00+27e912451 0.0 1012709
18:00+21e813600 0.0 1012259
21:00+17ese47720 0.0 1013112